BON309 FAOR-FMEE

Flight info

Callsign BON309
Flight time 3h 24m
Altitude 35000
Route EXOBI1A EXOBI UT122 ORNAD/N0443F270 UG653 SUNIR/N0468F370 UG653 GERAG GERAG2R
Aircraft A343/H-SDE2E3FGHIJ4J5M1RWXY/LB1D1

Departure

Time 2026-04-22 11:41
Airport O.R. Tambo International Airport (FAOR)

Arrival

Time 2026-04-22 15:05
Airport Roland Garros Airport (FMEE)
Time Latitude Longitude Altitude Speed Heading
2026-04-22 11:25 -26.13039 28.23612 5550 ft 0 kts
2026-04-22 11:30 -26.13060 28.23610 5550 ft 3 kts
2026-04-22 11:31 -26.13084 28.23607 5550 ft 3 kts
2026-04-22 11:31 -26.13106 28.23602 5549 ft 2 kts 21°
2026-04-22 11:31 -26.13117 28.23597 5553 ft 2 kts 47°
2026-04-22 11:31 -26.13124 28.23588 5554 ft 2 kts 86°
2026-04-22 11:32 -26.13124 28.23575 5549 ft 2 kts 93°
2026-04-22 11:32 -26.13123 28.23563 5549 ft 2 kts 97°
2026-04-22 11:32 -26.13123 28.23560 5550 ft 0 kts 96°
2026-04-22 11:34 -26.13124 28.23565 5550 ft 3 kts 96°
2026-04-22 11:34 -26.13129 28.23613 5553 ft 9 kts 96°
2026-04-22 11:35 -26.13142 28.23671 5552 ft 5 kts 130°
2026-04-22 11:35 -26.13182 28.23681 5553 ft 8 kts 177°
2026-04-22 11:35 -26.13244 28.23668 5552 ft 11 kts 197°
2026-04-22 11:35 -26.13315 28.23644 5556 ft 9 kts 196°
2026-04-22 11:36 -26.13368 28.23627 5553 ft 6 kts 196°
2026-04-22 11:36 -26.13407 28.23615 5554 ft 9 kts 194°
2026-04-22 11:36 -26.13507 28.23585 5557 ft 21 kts 195°
2026-04-22 11:36 -26.13663 28.23536 5558 ft 22 kts 196°
2026-04-22 11:37 -26.13798 28.23493 5563 ft 18 kts 195°
2026-04-22 11:37 -26.13913 28.23458 5565 ft 19 kts 195°
2026-04-22 11:37 -26.14076 28.23408 5568 ft 28 kts 195°
2026-04-22 11:37 -26.14258 28.23351 5568 ft 26 kts 196°
2026-04-22 11:38 -26.14412 28.23303 5569 ft 19 kts 196°
2026-04-22 11:38 -26.14541 28.23262 5567 ft 16 kts 192°
2026-04-22 11:38 -26.14583 28.23293 5568 ft 8 kts 128°
2026-04-22 11:39 -26.14615 28.23381 5570 ft 17 kts 103°
2026-04-22 11:39 -26.14592 28.23447 5570 ft 7 kts 32°
2026-04-22 11:39 -26.14542 28.23465 5569 ft 10 kts 15°
2026-04-22 11:39 -26.14350 28.23524 5569 ft 54 kts 16°
2026-04-22 11:40 -26.13821 28.23688 5567 ft 105 kts 15°
2026-04-22 11:40 -26.12967 28.23953 5553 ft 149 kts 15°
2026-04-22 11:40 -26.11848 28.24297 5585 ft 180 kts 15°
2026-04-22 11:40 -26.10632 28.24674 6097 ft 181 kts 13°
2026-04-22 11:41 -26.09403 28.25070 6612 ft 187 kts 15°
2026-04-22 11:41 -26.08126 28.25562 6938 ft 203 kts 24°
2026-04-22 11:41 -26.07006 28.26580 7125 ft 223 kts 56°
2026-04-22 11:41 -26.06478 28.28261 7386 ft 242 kts 78°
2026-04-22 11:42 -26.06214 28.30213 7555 ft 267 kts 81°
2026-04-22 11:42 -26.06049 28.31620 7797 ft 276 kts 81°
2026-04-22 11:42 -26.05697 28.34459 8556 ft 283 kts 80°
2026-04-22 11:42 -26.05410 28.36641 9212 ft 286 kts 79°
2026-04-22 11:43 -26.05118 28.38845 9880 ft 290 kts 79°
2026-04-22 11:43 -26.04821 28.41077 10484 ft 295 kts 80°
2026-04-22 11:43 -26.04612 28.42624 10717 ft 305 kts 80°
2026-04-22 11:43 -26.04189 28.45829 11064 ft 327 kts 83°
2026-04-22 11:44 -26.04128 28.47565 11214 ft 339 kts 93°
2026-04-22 11:44 -26.04562 28.50197 11462 ft 354 kts 105°
2026-04-22 11:44 -26.05262 28.52876 11706 ft 367 kts 107°
2026-04-22 11:44 -26.06004 28.55628 12070 ft 376 kts 107°
2026-04-22 11:45 -26.06755 28.58440 12511 ft 382 kts 107°
2026-04-22 11:45 -26.07512 28.61301 12961 ft 389 kts 107°
2026-04-22 11:45 -26.08274 28.64207 13413 ft 394 kts 107°
2026-04-22 11:45 -26.09035 28.67110 13866 ft 399 kts 107°
2026-04-22 11:46 -26.09815 28.70096 14312 ft 404 kts 107°
2026-04-22 11:46 -26.10404 28.73213 14758 ft 410 kts 96°
2026-04-22 11:46 -26.10353 28.76356 15239 ft 414 kts 83°
2026-04-22 11:46 -26.09935 28.79545 15703 ft 419 kts 80°
2026-04-22 11:47 -26.09457 28.82760 16151 ft 424 kts 80°
2026-04-22 11:47 -26.08973 28.86012 16617 ft 428 kts 80°
2026-04-22 11:47 -26.08491 28.89298 17050 ft 433 kts 80°
2026-04-22 11:47 -26.08006 28.92627 17470 ft 438 kts 80°
2026-04-22 11:48 -26.07517 28.95987 17917 ft 442 kts 80°
2026-04-22 11:48 -26.07024 28.99381 18342 ft 447 kts 80°
2026-04-22 11:48 -26.06527 29.02798 18797 ft 449 kts 80°
2026-04-22 11:48 -26.06027 29.06243 19263 ft 452 kts 79°
2026-04-22 11:49 -26.05530 29.09704 19772 ft 454 kts 80°
2026-04-22 11:49 -26.05035 29.13185 20282 ft 456 kts 80°
2026-04-22 11:49 -26.04681 29.16692 20674 ft 456 kts 84°
2026-04-22 11:49 -26.04472 29.20228 20936 ft 459 kts 85°
2026-04-22 11:50 -26.04332 29.23793 21210 ft 464 kts 86°
2026-04-22 11:50 -26.04216 29.27390 21673 ft 465 kts 86°
2026-04-22 11:50 -26.04109 29.30994 22170 ft 468 kts 85°
2026-04-22 11:50 -26.04001 29.34607 22624 ft 467 kts 85°
2026-04-22 11:51 -26.03884 29.38227 22977 ft 469 kts 85°
2026-04-22 11:51 -26.03751 29.41861 23336 ft 471 kts 84°
2026-04-22 11:51 -26.03611 29.45510 23768 ft 473 kts 84°
2026-04-22 11:51 -26.03478 29.49157 24200 ft 473 kts 83°
2026-04-22 11:52 -26.03339 29.52820 24542 ft 475 kts 83°
2026-04-22 11:52 -26.03195 29.56492 24832 ft 477 kts 83°
2026-04-22 11:52 -26.03046 29.60188 25102 ft 480 kts 83°
2026-04-22 11:52 -26.02897 29.63902 25392 ft 483 kts 83°
2026-04-22 11:53 -26.02744 29.67639 25688 ft 485 kts 83°
2026-04-22 11:53 -26.02591 29.71392 26013 ft 487 kts 83°
2026-04-22 11:53 -26.02441 29.75109 26290 ft 490 kts 83°
2026-04-22 11:53 -26.02286 29.78905 26555 ft 492 kts 83°
2026-04-22 11:54 -26.02129 29.82713 26814 ft 495 kts 83°
2026-04-22 11:54 -26.01973 29.86543 27069 ft 497 kts 83°
2026-04-22 11:54 -26.01812 29.90392 27300 ft 500 kts 83°
2026-04-22 11:54 -26.01649 29.94262 27544 ft 502 kts 83°
2026-04-22 11:55 -26.01484 29.98146 27807 ft 504 kts 83°
2026-04-22 11:55 -26.01317 30.02052 28014 ft 507 kts 83°
2026-04-22 11:55 -26.01147 30.05982 28246 ft 509 kts 83°
2026-04-22 11:55 -26.00975 30.09920 28477 ft 512 kts 83°
2026-04-22 11:56 -26.00801 30.13883 28712 ft 514 kts 83°
2026-04-22 11:56 -26.00627 30.17859 28891 ft 517 kts 83°
2026-04-22 11:56 -26.00453 30.21860 29127 ft 519 kts 83°
2026-04-22 11:56 -26.00278 30.25877 29346 ft 521 kts 83°
2026-04-22 11:57 -26.00094 30.29901 29527 ft 523 kts 83°
2026-04-22 11:57 -25.99911 30.33948 29735 ft 525 kts 83°
2026-04-22 11:57 -25.99732 30.37995 30025 ft 524 kts 83°
2026-04-22 11:57 -25.99547 30.42046 30223 ft 525 kts 83°
2026-04-22 11:58 -25.99362 30.46099 30472 ft 525 kts 82°
2026-04-22 11:58 -25.99176 30.50153 30786 ft 524 kts 83°
2026-04-22 11:58 -25.98992 30.54191 31071 ft 523 kts 82°
2026-04-22 11:58 -25.98805 30.58234 31333 ft 523 kts 82°
2026-04-22 11:59 -25.98617 30.62273 31615 ft 522 kts 82°
2026-04-22 11:59 -25.98429 30.66299 31869 ft 522 kts 82°
2026-04-22 11:59 -25.98238 30.70331 32075 ft 523 kts 82°
2026-04-22 11:59 -25.98044 30.74369 32312 ft 523 kts 82°
2026-04-22 12:00 -25.97850 30.78394 32556 ft 522 kts 82°
2026-04-22 12:00 -25.97656 30.82426 32802 ft 522 kts 82°
2026-04-22 12:00 -25.97459 30.86448 33016 ft 522 kts 82°
2026-04-22 12:00 -25.97264 30.90426 33169 ft 523 kts 82°
2026-04-22 12:01 -25.97064 30.94459 33325 ft 523 kts 82°
2026-04-22 12:01 -25.96866 30.98494 33535 ft 523 kts 83°
2026-04-22 12:01 -25.96668 31.02524 33741 ft 522 kts 82°
2026-04-22 12:01 -25.96470 31.06552 33955 ft 522 kts 82°
2026-04-22 12:02 -25.96270 31.10579 34180 ft 521 kts 82°
2026-04-22 12:02 -25.96069 31.14593 34388 ft 521 kts 82°
2026-04-22 12:02 -25.95652 31.22660 34613 ft 523 kts 82°
2026-04-22 12:03 -25.95446 31.26691 34796 ft 523 kts 82°
2026-04-22 12:03 -25.95237 31.30723 34968 ft 523 kts 82°
2026-04-22 12:03 -25.95025 31.34763 35088 ft 524 kts 82°
2026-04-22 12:03 -25.94813 31.38810 35145 ft 526 kts 82°
2026-04-22 12:04 -25.94381 31.46958 35139 ft 528 kts 82°
2026-04-22 12:04 -25.93947 31.55086 35137 ft 527 kts 82°
2026-04-22 12:05 -25.93512 31.63223 35138 ft 527 kts 82°
2026-04-22 12:05 -25.93075 31.71355 35134 ft 527 kts 82°
2026-04-22 12:06 -25.92632 31.79486 35122 ft 528 kts 82°
2026-04-22 12:06 -25.92181 31.87571 35122 ft 528 kts 82°
2026-04-22 12:07 -25.91722 31.95715 35112 ft 528 kts 82°
2026-04-22 12:07 -25.91205 32.03836 35100 ft 527 kts 81°
2026-04-22 12:08 -25.90580 32.11951 35090 ft 528 kts 81°
2026-04-22 12:08 -25.89952 32.20075 35084 ft 527 kts 81°
2026-04-22 12:09 -25.89343 32.28133 35068 ft 520 kts 81°
2026-04-22 12:09 -25.88746 32.36106 35063 ft 518 kts 81°
2026-04-22 12:10 -25.88139 32.44076 35055 ft 518 kts 81°
2026-04-22 12:10 -25.87528 32.52049 35046 ft 518 kts 81°
2026-04-22 12:11 -25.86848 32.60002 35042 ft 515 kts 76°
2026-04-22 12:11 -25.85537 32.67800 35045 ft 513 kts 74°
2026-04-22 12:12 -25.84101 32.75556 35045 ft 513 kts 73°
2026-04-22 12:12 -25.82643 32.83295 35055 ft 512 kts 74°
2026-04-22 12:13 -25.81202 32.90970 35055 ft 511 kts 74°
2026-04-22 12:13 -25.79754 32.98691 35055 ft 511 kts 74°
2026-04-22 12:14 -25.78303 33.06424 35054 ft 512 kts 74°
2026-04-22 12:14 -25.76844 33.14152 35054 ft 511 kts 74°
2026-04-22 12:15 -25.75386 33.21872 35055 ft 511 kts 74°
2026-04-22 12:15 -25.73922 33.29596 35055 ft 512 kts 74°
2026-04-22 12:16 -25.72451 33.37321 35054 ft 512 kts 74°
2026-04-22 12:16 -25.70976 33.45048 35054 ft 512 kts 74°
2026-04-22 12:17 -25.69499 33.52764 35054 ft 512 kts 74°
2026-04-22 12:17 -25.68016 33.60489 35055 ft 512 kts 74°
2026-04-22 12:18 -25.66541 33.68154 35046 ft 512 kts 74°
2026-04-22 12:18 -25.65051 33.75867 35045 ft 512 kts 74°
2026-04-22 12:19 -25.63558 33.83573 35046 ft 512 kts 74°
2026-04-22 12:19 -25.62060 33.91281 35044 ft 512 kts 73°
2026-04-22 12:20 -25.60557 33.98990 35046 ft 512 kts 73°
2026-04-22 12:20 -25.59052 34.06697 35047 ft 512 kts 73°
2026-04-22 12:21 -25.57569 34.14406 35044 ft 512 kts 75°
2026-04-22 12:21 -25.56151 34.22146 35045 ft 512 kts 75°
2026-04-22 12:22 -25.54734 34.29871 35045 ft 512 kts 75°
2026-04-22 12:22 -25.53302 34.37594 35042 ft 512 kts 75°
2026-04-22 12:23 -25.51859 34.45306 35036 ft 511 kts 75°
2026-04-22 12:23 -25.50415 34.53009 35036 ft 511 kts 75°
2026-04-22 12:24 -25.48968 34.60720 35036 ft 511 kts 75°
2026-04-22 12:24 -25.47518 34.68413 35036 ft 512 kts 75°
2026-04-22 12:25 -25.46058 34.76132 35035 ft 511 kts 75°
2026-04-22 12:25 -25.44598 34.83824 35037 ft 511 kts 75°
2026-04-22 12:26 -25.43143 34.91474 35030 ft 511 kts 75°
2026-04-22 12:26 -25.41672 34.99165 35025 ft 511 kts 75°
2026-04-22 12:27 -25.40198 35.06861 35026 ft 511 kts 75°
2026-04-22 12:27 -25.38726 35.14549 35028 ft 511 kts 75°
2026-04-22 12:28 -25.37247 35.22236 35027 ft 511 kts 75°
2026-04-22 12:28 -25.35763 35.29920 35026 ft 511 kts 75°
2026-04-22 12:29 -25.34273 35.37605 35026 ft 511 kts 75°
2026-04-22 12:29 -25.32780 35.45287 35007 ft 511 kts 75°
2026-04-22 12:30 -25.30537 35.56807 35001 ft 511 kts 75°
2026-04-22 12:31 -25.29034 35.64488 34998 ft 511 kts 75°
2026-04-22 12:31 -25.27528 35.72154 35003 ft 511 kts 75°
2026-04-22 12:32 -25.26018 35.79829 34999 ft 511 kts 75°
2026-04-22 12:32 -25.23746 35.91336 34995 ft 511 kts 75°
2026-04-22 12:33 -25.22224 35.99013 34993 ft 511 kts 75°
2026-04-22 12:33 -25.20959 36.05380 34999 ft 511 kts 75°
2026-04-22 12:34 -25.19186 36.14280 35000 ft 511 kts 75°
2026-04-22 12:34 -25.17656 36.21946 35007 ft 511 kts 75°
2026-04-22 12:35 -25.16123 36.29590 35003 ft 510 kts 75°
2026-04-22 12:35 -25.14834 36.35989 34998 ft 510 kts 75°
2026-04-22 12:36 -25.13294 36.43632 34990 ft 510 kts 75°
2026-04-22 12:36 -25.11764 36.51230 35000 ft 510 kts 75°
2026-04-22 12:37 -25.10189 36.58861 35005 ft 509 kts 74°
2026-04-22 12:37 -25.08491 36.66443 35003 ft 509 kts 73°
2026-04-22 12:38 -25.06772 36.74027 35005 ft 510 kts 73°
2026-04-22 12:38 -25.05068 36.81612 35013 ft 509 kts 73°
2026-04-22 12:39 -25.02521 36.92982 35011 ft 509 kts 73°
2026-04-22 12:40 -25.00824 37.00558 35008 ft 509 kts 73°
2026-04-22 12:40 -24.99119 37.08139 35006 ft 509 kts 73°
2026-04-22 12:41 -24.97412 37.15706 35002 ft 509 kts 73°
2026-04-22 12:41 -24.95701 37.23273 34998 ft 509 kts 73°
2026-04-22 12:42 -24.93986 37.30836 34993 ft 509 kts 73°
2026-04-22 12:42 -24.92268 37.38399 34997 ft 508 kts 74°
2026-04-22 12:43 -24.90549 37.45949 34993 ft 508 kts 73°
2026-04-22 12:43 -24.88824 37.53503 35000 ft 508 kts 73°
2026-04-22 12:44 -24.87107 37.60997 34996 ft 508 kts 73°
2026-04-22 12:44 -24.85376 37.68539 34996 ft 508 kts 73°
2026-04-22 12:45 -24.83642 37.76069 35002 ft 508 kts 73°
2026-04-22 12:45 -24.81905 37.83599 34994 ft 507 kts 73°
2026-04-22 12:46 -24.80165 37.91117 34997 ft 507 kts 73°
2026-04-22 12:46 -24.79161 37.95449 34990 ft 507 kts 73°
2026-04-22 12:48 -24.78994 37.96173 35004 ft 507 kts 74°
2026-04-22 12:48 -24.77251 38.03682 35000 ft 507 kts 74°
2026-04-22 12:49 -24.75504 38.11191 34996 ft 506 kts 74°
2026-04-22 12:49 -24.73753 38.18696 35003 ft 507 kts 74°
2026-04-22 12:50 -24.71998 38.26200 34999 ft 507 kts 74°
2026-04-22 12:50 -24.70238 38.33701 34995 ft 507 kts 74°
2026-04-22 12:51 -24.68476 38.41197 35002 ft 507 kts 74°
2026-04-22 12:51 -24.66709 38.48704 34997 ft 507 kts 74°
2026-04-22 12:52 -24.64941 38.56193 35002 ft 506 kts 74°
2026-04-22 12:52 -24.63177 38.63644 34997 ft 507 kts 74°
2026-04-22 12:53 -24.61399 38.71135 34998 ft 507 kts 74°
2026-04-22 12:53 -24.59620 38.78623 34996 ft 507 kts 74°
2026-04-22 12:54 -24.57833 38.86117 34987 ft 507 kts 74°
2026-04-22 12:54 -24.56042 38.93614 35002 ft 508 kts 74°
2026-04-22 12:55 -24.54245 39.01113 34986 ft 507 kts 74°
2026-04-22 12:55 -24.52447 39.08599 34984 ft 507 kts 74°
2026-04-22 12:56 -24.50648 39.16079 35001 ft 506 kts 74°
2026-04-22 12:56 -24.48844 39.23556 34985 ft 507 kts 74°
2026-04-22 12:57 -24.47039 39.31023 34986 ft 506 kts 74°
2026-04-22 12:57 -24.45231 39.38490 34986 ft 506 kts 74°
2026-04-22 12:58 -24.43419 39.45950 34984 ft 506 kts 74°
2026-04-22 12:58 -24.41604 39.53398 35000 ft 505 kts 74°
2026-04-22 12:59 -24.39786 39.60848 34986 ft 505 kts 74°
2026-04-22 12:59 -24.37965 39.68296 34985 ft 505 kts 74°
2026-04-22 13:00 -24.36143 39.75736 35003 ft 505 kts 74°
2026-04-22 13:00 -24.34319 39.83158 34984 ft 505 kts 74°
2026-04-22 13:01 -24.32490 39.90586 34981 ft 505 kts 74°
2026-04-22 13:01 -24.30656 39.98009 35061 ft 504 kts 74°
2026-04-22 13:01 -24.29743 40.01713 35240 ft 504 kts 74°
2026-04-22 13:02 -24.28859 40.05434 35441 ft 503 kts 75°
2026-04-22 13:02 -24.28005 40.09147 35628 ft 502 kts 75°
2026-04-22 13:02 -24.27158 40.12860 35737 ft 503 kts 75°
2026-04-22 13:02 -24.26313 40.16566 35856 ft 503 kts 75°
2026-04-22 13:03 -24.25460 40.20285 36020 ft 502 kts 75°
2026-04-22 13:03 -24.24606 40.23984 36168 ft 502 kts 75°
2026-04-22 13:03 -24.23743 40.27701 36312 ft 502 kts 75°
2026-04-22 13:03 -24.22884 40.31392 36432 ft 502 kts 75°
2026-04-22 13:04 -24.22017 40.35105 36539 ft 502 kts 75°
2026-04-22 13:04 -24.21151 40.38803 36681 ft 501 kts 75°
2026-04-22 13:04 -24.20287 40.42498 36836 ft 500 kts 75°
2026-04-22 13:04 -24.19424 40.46182 36968 ft 500 kts 75°
2026-04-22 13:05 -24.18560 40.49868 36980 ft 498 kts 75°
2026-04-22 13:05 -24.16848 40.57162 36982 ft 492 kts 75°
2026-04-22 13:06 -24.15139 40.64420 36984 ft 492 kts 75°
2026-04-22 13:06 -24.13430 40.71674 36983 ft 492 kts 75°
2026-04-22 13:07 -24.11711 40.78938 36974 ft 493 kts 75°
2026-04-22 13:07 -24.09991 40.86189 36973 ft 492 kts 75°
2026-04-22 13:08 -24.08270 40.93446 36980 ft 492 kts 75°
2026-04-22 13:08 -24.06542 41.00696 36981 ft 492 kts 75°
2026-04-22 13:09 -24.04814 41.07937 36975 ft 492 kts 75°
2026-04-22 13:09 -24.03082 41.15181 36971 ft 491 kts 75°
2026-04-22 13:10 -24.01348 41.22411 36971 ft 492 kts 75°
2026-04-22 13:10 -23.99610 41.29643 36970 ft 491 kts 75°
2026-04-22 13:11 -23.97874 41.36852 36971 ft 489 kts 75°
2026-04-22 13:11 -23.96139 41.44043 36971 ft 489 kts 75°
2026-04-22 13:12 -23.94413 41.51185 36971 ft 489 kts 75°
2026-04-22 13:12 -23.92663 41.58414 36971 ft 489 kts 75°
2026-04-22 13:13 -23.90917 41.65603 36971 ft 489 kts 75°
2026-04-22 13:13 -23.89171 41.72780 36971 ft 489 kts 75°
2026-04-22 13:14 -23.87417 41.79971 36971 ft 489 kts 75°
2026-04-22 13:14 -23.85662 41.87147 36971 ft 489 kts 75°
2026-04-22 13:15 -23.83915 41.94278 36962 ft 489 kts 75°
2026-04-22 13:15 -23.82153 42.01454 36962 ft 489 kts 75°
2026-04-22 13:16 -23.80390 42.08624 36962 ft 489 kts 75°
2026-04-22 13:16 -23.78621 42.15803 36962 ft 489 kts 75°
2026-04-22 13:17 -23.76849 42.22970 36962 ft 489 kts 75°
2026-04-22 13:17 -23.75074 42.30140 36962 ft 489 kts 75°
2026-04-22 13:18 -23.73300 42.37287 36962 ft 488 kts 75°
2026-04-22 13:18 -23.71522 42.44438 36962 ft 488 kts 75°
2026-04-22 13:19 -23.69745 42.51569 36962 ft 488 kts 75°
2026-04-22 13:19 -23.68262 42.57509 36962 ft 488 kts 75°
2026-04-22 13:20 -23.66476 42.64652 36961 ft 488 kts 75°
2026-04-22 13:20 -23.64684 42.71793 36962 ft 488 kts 75°
2026-04-22 13:21 -23.62592 42.80121 36962 ft 488 kts 75°
2026-04-22 13:21 -23.61097 42.86051 36962 ft 487 kts 75°
2026-04-22 13:22 -23.59300 42.93173 36962 ft 487 kts 75°
2026-04-22 13:24 -23.57596 42.99925 36970 ft 487 kts 75°
2026-04-22 13:25 -23.55795 43.07037 36971 ft 487 kts 75°
2026-04-22 13:25 -23.53991 43.14146 36963 ft 487 kts 75°
2026-04-22 13:26 -23.52184 43.21253 36962 ft 487 kts 75°
2026-04-22 13:26 -23.50373 43.28354 36962 ft 487 kts 75°
2026-04-22 13:27 -23.48558 43.35457 36962 ft 486 kts 75°
2026-04-22 13:27 -23.46745 43.42543 36962 ft 486 kts 75°
2026-04-22 13:28 -23.44925 43.49643 36962 ft 486 kts 75°
2026-04-22 13:28 -23.43105 43.56732 36962 ft 486 kts 75°
2026-04-22 13:29 -23.41280 43.63820 36962 ft 486 kts 75°
2026-04-22 13:29 -23.39461 43.70918 36959 ft 486 kts 77°
2026-04-22 13:30 -23.38085 43.78112 36962 ft 485 kts 80°
2026-04-22 13:30 -23.36824 43.85324 36961 ft 485 kts 81°
2026-04-22 13:31 -23.35580 43.92546 36962 ft 486 kts 81°
2026-04-22 13:31 -23.34324 43.99775 36962 ft 485 kts 81°
2026-04-22 13:32 -23.33065 44.06981 36962 ft 485 kts 81°
2026-04-22 13:32 -23.31803 44.14177 36971 ft 484 kts 81°
2026-04-22 13:33 -23.30540 44.21362 36971 ft 484 kts 81°
2026-04-22 13:33 -23.29271 44.28551 36972 ft 484 kts 81°
2026-04-22 13:34 -23.27999 44.35734 36971 ft 483 kts 81°
2026-04-22 13:34 -23.26728 44.42911 36971 ft 483 kts 81°
2026-04-22 13:35 -23.25455 44.50077 36971 ft 483 kts 81°
2026-04-22 13:35 -23.24177 44.57244 36974 ft 483 kts 81°
2026-04-22 13:36 -23.22896 44.64402 36972 ft 482 kts 81°
2026-04-22 13:36 -23.21613 44.71561 36972 ft 483 kts 81°
2026-04-22 13:37 -23.20325 44.78720 36971 ft 483 kts 81°
2026-04-22 13:37 -23.19035 44.85883 36971 ft 482 kts 81°
2026-04-22 13:38 -23.17743 44.93027 36970 ft 482 kts 81°
2026-04-22 13:38 -23.15799 45.03743 36970 ft 481 kts 81°
2026-04-22 13:39 -23.14500 45.10871 36972 ft 481 kts 81°
2026-04-22 13:39 -23.13199 45.17999 36980 ft 480 kts 81°
2026-04-22 13:40 -23.11898 45.25107 36979 ft 480 kts 81°
2026-04-22 13:40 -23.10593 45.32228 36980 ft 480 kts 81°
2026-04-22 13:41 -23.09284 45.39344 36979 ft 481 kts 81°
2026-04-22 13:41 -23.07972 45.46461 36979 ft 480 kts 81°
2026-04-22 13:42 -23.06659 45.53562 36982 ft 480 kts 81°
2026-04-22 13:42 -23.05343 45.60663 36985 ft 480 kts 81°
2026-04-22 13:43 -23.04025 45.67756 36978 ft 480 kts 81°
2026-04-22 13:43 -23.02702 45.74859 36978 ft 479 kts 81°
2026-04-22 13:44 -23.01377 45.81955 36982 ft 479 kts 81°
2026-04-22 13:44 -23.00050 45.89044 36984 ft 479 kts 81°
2026-04-22 13:45 -22.98719 45.96125 36978 ft 479 kts 81°
2026-04-22 13:45 -22.97393 46.03167 36991 ft 479 kts 81°
2026-04-22 13:46 -22.96060 46.10229 36991 ft 477 kts 81°
2026-04-22 13:46 -22.94724 46.17282 36990 ft 477 kts 81°
2026-04-22 13:47 -22.93385 46.24329 36990 ft 477 kts 81°
2026-04-22 13:47 -22.92048 46.31370 36989 ft 477 kts 81°
2026-04-22 13:48 -22.90707 46.38409 36989 ft 477 kts 81°
2026-04-22 13:48 -22.89360 46.45446 36990 ft 476 kts 81°
2026-04-22 13:49 -22.88011 46.52488 36990 ft 476 kts 81°
2026-04-22 13:49 -22.86664 46.59502 36989 ft 476 kts 81°
2026-04-22 13:50 -22.85309 46.66535 36990 ft 476 kts 81°
2026-04-22 13:50 -22.83954 46.73559 36990 ft 476 kts 81°
2026-04-22 13:51 -22.82598 46.80585 36989 ft 476 kts 81°
2026-04-22 13:51 -22.81237 46.87597 36989 ft 476 kts 81°
2026-04-22 13:52 -22.79872 46.94613 36990 ft 475 kts 81°
2026-04-22 13:52 -22.78503 47.01622 36999 ft 475 kts 81°
2026-04-22 13:53 -22.77134 47.08625 37000 ft 475 kts 81°
2026-04-22 13:53 -22.75764 47.15620 37001 ft 475 kts 81°
2026-04-22 13:54 -22.74390 47.22616 37007 ft 474 kts 81°
2026-04-22 13:54 -22.73016 47.29604 37008 ft 474 kts 81°
2026-04-22 13:55 -22.71638 47.36576 37007 ft 474 kts 81°
2026-04-22 13:55 -22.70255 47.43556 37008 ft 473 kts 81°
2026-04-22 13:56 -22.68877 47.50518 37010 ft 473 kts 81°
2026-04-22 13:56 -22.68125 47.54309 37017 ft 473 kts 81°
2026-04-22 13:57 -22.66738 47.61281 37017 ft 473 kts 82°
2026-04-22 13:57 -22.65350 47.68231 37018 ft 473 kts 81°
2026-04-22 13:58 -22.63956 47.75194 37018 ft 473 kts 81°
2026-04-22 13:58 -22.62563 47.82145 37018 ft 472 kts 82°
2026-04-22 13:59 -22.61168 47.89090 37017 ft 472 kts 82°
2026-04-22 13:59 -22.59780 47.95986 37017 ft 472 kts 82°
2026-04-22 14:00 -22.58382 48.02923 37017 ft 472 kts 82°
2026-04-22 14:00 -22.56982 48.09855 37017 ft 470 kts 82°
2026-04-22 14:01 -22.55583 48.16768 37026 ft 471 kts 82°
2026-04-22 14:01 -22.54179 48.23685 37026 ft 471 kts 82°
2026-04-22 14:02 -22.52774 48.30590 37027 ft 470 kts 82°
2026-04-22 14:02 -22.51355 48.37552 37029 ft 471 kts 82°
2026-04-22 14:03 -22.49943 48.44464 37029 ft 471 kts 82°
2026-04-22 14:03 -22.48531 48.51355 37026 ft 470 kts 82°
2026-04-22 14:04 -22.47120 48.58225 37026 ft 470 kts 82°
2026-04-22 14:04 -22.45700 48.65127 37026 ft 470 kts 82°
2026-04-22 14:05 -22.44279 48.72026 37026 ft 470 kts 82°
2026-04-22 14:06 -22.42372 48.81249 37026 ft 470 kts 82°
2026-04-22 14:06 -22.40939 48.88148 37026 ft 470 kts 82°
2026-04-22 14:07 -22.39506 48.95035 37027 ft 470 kts 82°
2026-04-22 14:07 -22.38073 49.01920 37033 ft 470 kts 82°
2026-04-22 14:08 -22.36636 49.08798 37048 ft 469 kts 82°
2026-04-22 14:08 -22.35201 49.15670 37049 ft 469 kts 82°
2026-04-22 14:09 -22.33761 49.22543 37045 ft 469 kts 82°
2026-04-22 14:09 -22.32321 49.29405 37048 ft 468 kts 82°
2026-04-22 14:10 -22.30877 49.36260 37043 ft 468 kts 82°
2026-04-22 14:10 -22.29431 49.43109 37049 ft 468 kts 82°
2026-04-22 14:11 -22.27984 49.49953 37055 ft 467 kts 82°
2026-04-22 14:11 -22.26535 49.56792 37056 ft 467 kts 82°
2026-04-22 14:12 -22.25084 49.63621 37055 ft 467 kts 82°
2026-04-22 14:12 -22.23629 49.70450 37053 ft 467 kts 82°
2026-04-22 14:13 -22.22172 49.77277 37052 ft 467 kts 82°
2026-04-22 14:13 -22.20712 49.84107 36993 ft 467 kts 82°
2026-04-22 14:14 -22.19253 49.90922 36982 ft 466 kts 82°
2026-04-22 14:14 -22.17788 49.97738 36979 ft 466 kts 82°
2026-04-22 14:15 -22.16324 50.04548 36984 ft 466 kts 82°
2026-04-22 14:15 -22.14855 50.11360 36981 ft 466 kts 82°
2026-04-22 14:16 -22.13384 50.18171 36979 ft 466 kts 82°
2026-04-22 14:16 -22.11908 50.24982 36980 ft 466 kts 82°
2026-04-22 14:17 -22.10430 50.31787 36982 ft 466 kts 82°
2026-04-22 14:17 -22.08960 50.38548 36982 ft 466 kts 82°
2026-04-22 14:18 -22.07478 50.45342 36981 ft 465 kts 82°
2026-04-22 14:18 -22.05995 50.52134 36978 ft 465 kts 82°
2026-04-22 14:19 -22.04510 50.58923 36981 ft 465 kts 82°
2026-04-22 14:19 -22.03022 50.65710 36981 ft 465 kts 82°
2026-04-22 14:20 -22.00789 50.75864 36982 ft 464 kts 82°
2026-04-22 14:20 -21.99298 50.82626 36990 ft 464 kts 82°
2026-04-22 14:21 -21.97064 50.92733 36990 ft 461 kts 82°
2026-04-22 14:22 -21.94836 51.02786 36990 ft 460 kts 82°
2026-04-22 14:23 -21.92604 51.12817 36999 ft 459 kts 82°
2026-04-22 14:23 -21.91116 51.19493 36999 ft 458 kts 82°
2026-04-22 14:24 -21.89627 51.26160 36999 ft 457 kts 82°
2026-04-22 14:24 -21.88137 51.32819 36999 ft 457 kts 82°
2026-04-22 14:25 -21.86645 51.39466 36999 ft 457 kts 82°
2026-04-22 14:25 -21.85153 51.46106 36999 ft 456 kts 82°
2026-04-22 14:26 -21.83658 51.52746 36999 ft 456 kts 82°
2026-04-22 14:26 -21.82172 51.59317 37000 ft 456 kts 82°
2026-04-22 14:27 -21.80658 51.66010 36999 ft 456 kts 82°
2026-04-22 14:27 -21.79157 51.72632 36999 ft 455 kts 82°
2026-04-22 14:28 -21.77654 51.79245 36999 ft 455 kts 82°
2026-04-22 14:28 -21.76162 51.85801 36999 ft 455 kts 82°
2026-04-22 14:29 -21.74650 51.92419 36999 ft 455 kts 82°
2026-04-22 14:29 -21.73140 51.99031 36998 ft 455 kts 82°
2026-04-22 14:30 -21.71628 52.05636 36998 ft 455 kts 82°
2026-04-22 14:30 -21.70112 52.12244 36998 ft 455 kts 82°
2026-04-22 14:31 -21.68595 52.18850 36998 ft 455 kts 82°
2026-04-22 14:31 -21.67075 52.25450 36999 ft 455 kts 82°
2026-04-22 14:32 -21.65549 52.32062 36999 ft 455 kts 82°
2026-04-22 14:32 -21.64021 52.38670 36999 ft 456 kts 82°
2026-04-22 14:33 -21.62489 52.45284 36999 ft 456 kts 82°
2026-04-22 14:33 -21.60956 52.51891 36999 ft 456 kts 82°
2026-04-22 14:34 -21.59419 52.58499 36999 ft 455 kts 82°
2026-04-22 14:34 -21.57883 52.65096 36999 ft 456 kts 82°
2026-04-22 14:35 -21.56343 52.71694 36999 ft 456 kts 82°
2026-04-22 14:35 -21.54799 52.78294 36999 ft 455 kts 82°
2026-04-22 14:36 -21.53254 52.84888 36999 ft 455 kts 82°
2026-04-22 14:36 -21.51707 52.91479 36999 ft 455 kts 82°
2026-04-22 14:37 -21.49859 52.98020 36999 ft 459 kts 77°
2026-04-22 14:37 -21.47813 53.04509 36999 ft 459 kts 78°
2026-04-22 14:38 -21.46000 53.10376 36998 ft 460 kts 78°
2026-04-22 14:38 -21.44000 53.16894 36999 ft 460 kts 78°
2026-04-22 14:39 -21.42005 53.23409 36999 ft 459 kts 78°
2026-04-22 14:39 -21.40008 53.29917 36654 ft 458 kts 78°
2026-04-22 14:40 -21.38354 53.35307 35644 ft 460 kts 78°
2026-04-22 14:40 -21.37013 53.39677 34775 ft 462 kts 79°
2026-04-22 14:40 -21.36005 53.42957 34136 ft 464 kts 79°
2026-04-22 14:40 -21.34992 53.46249 33456 ft 465 kts 79°
2026-04-22 14:41 -21.33976 53.49551 32753 ft 468 kts 79°
2026-04-22 14:41 -21.32967 53.52828 32008 ft 471 kts 79°
2026-04-22 14:41 -21.31937 53.56169 31234 ft 473 kts 79°
2026-04-22 14:41 -21.30901 53.59524 30498 ft 475 kts 79°
2026-04-22 14:42 -21.29860 53.62893 29710 ft 477 kts 79°
2026-04-22 14:42 -21.28817 53.66273 28979 ft 478 kts 79°
2026-04-22 14:42 -21.27773 53.69641 28370 ft 475 kts 78°
2026-04-22 14:42 -21.26732 53.72990 27816 ft 471 kts 78°
2026-04-22 14:43 -21.25702 53.76307 27271 ft 467 kts 78°
2026-04-22 14:43 -21.24679 53.79601 26723 ft 464 kts 78°
2026-04-22 14:43 -21.23664 53.82871 26196 ft 460 kts 78°
2026-04-22 14:43 -21.22657 53.86112 25629 ft 457 kts 77°
2026-04-22 14:44 -21.21657 53.89324 25100 ft 453 kts 77°
2026-04-22 14:44 -21.20664 53.92519 24557 ft 450 kts 77°
2026-04-22 14:44 -21.19677 53.95690 24019 ft 447 kts 77°
2026-04-22 14:44 -21.18698 53.98836 23476 ft 444 kts 76°
2026-04-22 14:45 -21.17724 54.01961 22932 ft 441 kts 76°
2026-04-22 14:45 -21.16756 54.05067 22386 ft 438 kts 76°
2026-04-22 14:45 -21.15794 54.08149 21847 ft 435 kts 76°
2026-04-22 14:45 -21.14840 54.11208 21313 ft 432 kts 75°
2026-04-22 14:46 -21.13888 54.14252 20771 ft 429 kts 75°
2026-04-22 14:46 -21.12944 54.17268 20244 ft 426 kts 75°
2026-04-22 14:46 -21.12005 54.20269 19711 ft 423 kts 75°
2026-04-22 14:46 -21.11074 54.23241 19185 ft 420 kts 74°
2026-04-22 14:47 -21.10148 54.26192 18662 ft 416 kts 74°
2026-04-22 14:47 -21.09229 54.29121 18144 ft 413 kts 74°
2026-04-22 14:47 -21.08318 54.32026 17625 ft 410 kts 74°
2026-04-22 14:47 -21.07413 54.34906 17114 ft 407 kts 73°
2026-04-22 14:48 -21.06514 54.37765 16588 ft 404 kts 73°
2026-04-22 14:48 -21.05623 54.40599 16083 ft 401 kts 73°
2026-04-22 14:48 -21.04739 54.43408 15580 ft 398 kts 73°
2026-04-22 14:48 -21.03857 54.46210 15070 ft 395 kts 73°
2026-04-22 14:49 -21.02983 54.48983 14559 ft 392 kts 72°
2026-04-22 14:49 -21.02114 54.51738 14049 ft 389 kts 72°
2026-04-22 14:49 -21.01253 54.54467 13546 ft 386 kts 72°
2026-04-22 14:49 -21.00397 54.57179 13026 ft 383 kts 72°
2026-04-22 14:50 -20.99546 54.59873 12545 ft 381 kts 72°
2026-04-22 14:50 -20.98701 54.62547 12024 ft 378 kts 72°
2026-04-22 14:50 -20.98144 54.64309 11689 ft 376 kts 71°
2026-04-22 14:50 -20.97034 54.67819 11283 ft 365 kts 71°
2026-04-22 14:51 -20.96234 54.70343 11176 ft 352 kts 71°
2026-04-22 14:51 -20.95461 54.72782 11062 ft 340 kts 71°
2026-04-22 14:51 -20.94964 54.74349 10959 ft 333 kts 71°
2026-04-22 14:51 -20.94230 54.76663 10814 ft 323 kts 71°
2026-04-22 14:52 -20.93517 54.78911 10667 ft 314 kts 71°
2026-04-22 14:52 -20.92824 54.81092 10527 ft 306 kts 71°
2026-04-22 14:52 -20.92150 54.83215 10391 ft 297 kts 71°
2026-04-22 14:52 -20.91495 54.85280 10240 ft 290 kts 71°
2026-04-22 14:53 -20.90852 54.87304 9991 ft 286 kts 71°
2026-04-22 14:53 -20.90211 54.89315 9713 ft 285 kts 71°
2026-04-22 14:53 -20.89577 54.91308 9413 ft 282 kts 71°
2026-04-22 14:53 -20.88945 54.93292 9113 ft 281 kts 71°
2026-04-22 14:54 -20.88321 54.95263 8787 ft 278 kts 71°
2026-04-22 14:54 -20.87702 54.97205 8259 ft 275 kts 71°
2026-04-22 14:54 -20.87089 54.99125 7705 ft 270 kts 71°
2026-04-22 14:54 -20.86489 55.01010 7311 ft 266 kts 71°
2026-04-22 14:55 -20.85894 55.02876 6980 ft 265 kts 71°
2026-04-22 14:55 -20.85302 55.04728 6780 ft 260 kts 71°
2026-04-22 14:55 -20.84727 55.06522 6659 ft 251 kts 71°
2026-04-22 14:55 -20.84169 55.08256 6539 ft 243 kts 71°
2026-04-22 14:56 -20.83633 55.09942 6367 ft 237 kts 71°
2026-04-22 14:56 -20.83105 55.11587 6137 ft 232 kts 71°
2026-04-22 14:56 -20.82586 55.13213 5729 ft 230 kts 71°
2026-04-22 14:56 -20.82072 55.14825 5325 ft 229 kts 72°
2026-04-22 14:57 -20.81558 55.16431 4945 ft 227 kts 72°
2026-04-22 14:57 -20.81054 55.18017 4572 ft 224 kts 72°
2026-04-22 14:57 -20.80552 55.19579 4363 ft 222 kts 72°
2026-04-22 14:57 -20.80051 55.21135 4244 ft 219 kts 72°
2026-04-22 14:58 -20.79568 55.22642 4147 ft 211 kts 72°
2026-04-22 14:58 -20.79101 55.24099 4007 ft 204 kts 72°
2026-04-22 14:58 -20.78650 55.25510 3867 ft 198 kts 72°
2026-04-22 14:58 -20.78316 55.26931 3681 ft 194 kts 84°
2026-04-22 14:59 -20.78402 55.28331 3543 ft 185 kts 103°
2026-04-22 14:59 -20.78806 55.29613 3391 ft 180 kts 110°
2026-04-22 14:59 -20.79315 55.30805 3184 ft 177 kts 113°
2026-04-22 14:59 -20.79843 55.31992 3010 ft 176 kts 113°
2026-04-22 15:00 -20.80386 55.33164 2993 ft 176 kts 114°
2026-04-22 15:00 -20.80934 55.34336 2990 ft 176 kts 114°
2026-04-22 15:00 -20.81479 55.35503 2990 ft 176 kts 114°
2026-04-22 15:00 -20.82020 55.36677 2900 ft 174 kts 114°
2026-04-22 15:01 -20.82550 55.37820 2663 ft 170 kts 114°
2026-04-22 15:01 -20.83077 55.38947 2399 ft 167 kts 115°
2026-04-22 15:01 -20.83577 55.40024 2188 ft 154 kts 115°
2026-04-22 15:01 -20.84036 55.41005 1984 ft 142 kts 115°
2026-04-22 15:02 -20.84470 55.41936 1796 ft 138 kts 115°
2026-04-22 15:02 -20.84904 55.42868 1616 ft 142 kts 116°
2026-04-22 15:02 -20.85343 55.43809 1421 ft 142 kts 116°
2026-04-22 15:02 -20.85782 55.44753 1231 ft 142 kts 116°
2026-04-22 15:03 -20.86222 55.45696 1043 ft 142 kts 116°
2026-04-22 15:03 -20.86661 55.46641 849 ft 142 kts 116°
2026-04-22 15:03 -20.87101 55.47584 665 ft 141 kts 118°
2026-04-22 15:03 -20.87540 55.48528 484 ft 143 kts 116°
2026-04-22 15:04 -20.87980 55.49488 298 ft 144 kts 117°
2026-04-22 15:04 -20.88424 55.50443 95 ft 144 kts 117°
2026-04-22 15:04 -20.88848 55.51326 68 ft 116 kts 116°
2026-04-22 15:04 -20.89128 55.51924 67 ft 64 kts 116°
2026-04-22 15:05 -20.89244 55.52174 63 ft 16 kts 117°
2026-04-22 15:05 -20.89311 55.52213 73 ft 8 kts 187°
2026-04-22 15:05 -20.89351 55.52199 84 ft 6 kts 204°
2026-04-22 15:05 -20.89395 55.52170 90 ft 8 kts 225°
2026-04-22 15:06 -20.89387 55.52077 93 ft 19 kts 302°
2026-04-22 15:06 -20.89322 55.51946 88 ft 21 kts 296°
2026-04-22 15:06 -20.89256 55.51807 87 ft 21 kts 297°
2026-04-22 15:06 -20.89189 55.51664 86 ft 22 kts 296°
2026-04-22 15:07 -20.89145 55.51569 87 ft 13 kts 296°
2026-04-22 15:07 -20.89095 55.51462 69 ft 18 kts 296°
2026-04-22 15:07 -20.89038 55.51340 70 ft 16 kts 296°
2026-04-22 15:07 -20.89012 55.51284 69 ft 6 kts 291°
2026-04-22 15:08 -20.89023 55.51266 75 ft 4 kts 227°
2026-04-22 15:08 -20.89062 55.51241 70 ft 7 kts 208°
2026-04-22 15:08 -20.89073 55.51234 72 ft 1 kts 206°
2026-04-22 15:08 -20.89075 55.51233 69 ft 0 kts 206°